EW9273 Weather Reports


Display with metric or nautical units.
time (UTC)temp
F
wind
direction
speed
MPH
gust
MPH
rain 1hr
in
rain 24hr
in
rain mn
in
humidity
%
barometer
mb
20260506134508 75 167 0.0 4.0 0.00 0.00 0.00 85 1006.0
20260506134007 75 126 0.0 5.0 0.00 0.00 0.00 85 1005.9
20260506133507 75 69 0.0 5.0 0.00 0.00 0.00 85 1005.8
20260506133008 75 65 1.0 6.0 0.00 0.00 0.00 85 1005.9
20260506132506 75 100 1.0 6.0 0.00 0.00 0.00 85 1005.8
20260506132010 75 98 1.0 6.0 0.00 0.00 0.00 85 1005.7
20260506131505 75 71 0.0 4.0 0.00 0.00 0.00 85 1005.8
20260506131005 75 98 0.0 4.0 0.00 0.00 0.00 85 1005.7
20260506130505 75 79 1.0 4.0 0.00 0.00 0.00 85 1005.7
20260506130012 75 65 0.0 4.0 0.00 0.00 0.00 85 1005.7
20260506125504 75 63 0.0 4.0 0.00 0.00 0.00 85 1005.7
20260506125004 75 82 0.0 4.0 0.00 0.00 0.00 85 1005.7
20260506124503 74 57 0.0 2.0 0.00 0.00 0.00 85 1005.8
20260506124002 74 57 0.0 3.0 0.00 0.00 0.00 85 1005.8
20260506123503 74 34 0.0 3.0 0.00 0.00 0.00 85 1005.9
20260506123002 74 152 0.0 2.0 0.00 0.00 0.00 85 1005.8
20260506122502 74 152 0.0 3.0 0.00 0.00 0.00 85 1005.8
20260506122059 74 77 0.0 3.0 0.00 0.00 0.00 85 1005.7
20260506121613 74 77 0.0 2.0 0.00 0.00 0.00 85 1005.6
20260506121059 74 77 0.0 2.0 0.00 0.00 0.00 85 1005.6
20260506120558 74 77 0.0 2.0 0.00 0.00 0.00 85 1005.5
20260506120119 74 77 0.0 3.0 0.00 0.00 0.00 85 1005.6
20260506115557 74 77 0.0 3.0 0.00 0.00 0.00 85 1005.5
20260506115057 74 134 0.0 4.0 0.00 0.00 0.00 85 1005.6
20260506114557 74 69 1.0 4.0 0.00 0.00 0.00 84 1005.5
20260506114055 74 60 0.0 2.0 0.00 0.00 0.00 84 1005.5
20260506113555 74 60 0.0 2.0 0.00 0.00 0.00 84 1005.5
20260506113103 74 190 0.0 2.0 0.00 0.00 0.00 84 1005.5
20260506112555 74 190 0.0 2.0 0.00 0.00 0.00 84 1005.5
20260506112054 74 190 0.0 2.0 0.00 0.00 0.00 84 1005.5
20260506111555 74 190 0.0 2.0 0.00 0.00 0.00 84 1005.5
20260506111054 74 190 0.0 0.0 0.00 0.00 0.00 84 1005.5
20260506110556 74 190 0.0 1.0 0.00 0.00 0.00 84 1005.5
20260506110055 74 190 0.0 1.0 0.00 0.00 0.00 84 1005.5
20260506105554 74 190 0.0 0.0 0.00 0.00 0.00 84 1005.5
20260506105054 74 190 0.0 0.0 0.00 0.00 0.00 84 1005.3
20260506104554 75 190 0.0 2.0 0.00 0.00 0.00 84 1005.3
20260506104052 75 190 0.0 3.0 0.00 0.00 0.00 83 1005.2
20260506103552 75 190 0.0 2.0 0.00 0.00 0.00 83 1005.3
20260506103054 75 190 0.0 3.0 0.00 0.00 0.00 83 1005.3
20260506102552 75 190 1.0 3.0 0.00 0.00 0.00 83 1005.3
20260506102054 75 190 0.0 3.0 0.00 0.00 0.00 83 1005.3
20260506101552 75 190 0.0 3.0 0.00 0.00 0.00 83 1005.2
20260506101050 75 190 1.0 5.0 0.00 0.00 0.00 83 1005.3
20260506100550 75 155 2.0 5.0 0.00 0.00 0.00 83 1005.2
20260506100050 75 173 1.0 6.0 0.00 0.00 0.00 83 1005.1
20260506095550 75 176 2.0 9.0 0.00 0.00 0.00 83 1005.1
20260506095051 75 150 1.0 9.0 0.00 0.00 0.00 82 1005.3
20260506094550 75 137 2.0 5.0 0.00 0.00 0.00 82 1005.2
20260506094048 75 154 1.0 7.0 0.00 0.00 0.00 82 1005.2
20260506093548 75 108 3.0 7.0 0.00 0.00 0.00 82 1005.1
20260506093051 75 162 1.0 5.0 0.00 0.00 0.00 82 1005.1
20260506092548 75 122 0.0 8.0 0.00 0.00 0.00 82 1005.1
20260506092048 75 168 2.0 8.0 0.00 0.00 0.00 82 1005.0
20260506091548 75 154 3.0 8.0 0.00 0.00 0.00 82 1005.0
20260506091047 75 165 2.0 7.0 0.00 0.00 0.00 82 1005.0
20260506090546 75 185 4.0 8.0 0.00 0.00 0.00 82 1005.1
20260506090047 75 176 2.0 8.0 0.00 0.00 0.00 82 1005.2
20260506085546 76 164 3.0 9.0 0.00 0.00 0.00 82 1005.1
20260506085046 76 169 3.0 7.0 0.00 0.00 0.00 82 1005.1
20260506084545 76 187 3.0 9.0 0.00 0.00 0.00 81 1005.2
20260506084044 76 174 4.0 9.0 0.00 0.00 0.00 81 1005.2
20260506083544 76 179 4.0 8.0 0.00 0.00 0.00 81 1005.2
20260506083046 76 140 2.0 8.0 0.00 0.00 0.00 81 1005.3
20260506082545 76 184 4.0 8.0 0.00 0.00 0.00 81 1005.3
20260506082043 76 141 2.0 7.0 0.00 0.00 0.00 81 1005.3
20260506081548 76 155 3.0 9.0 0.00 0.00 0.00 81 1005.4
20260506081042 76 167 2.0 9.0 0.00 0.00 0.00 81 1005.4
20260506080545 76 172 1.0 9.0 0.00 0.00 0.00 81 1005.3
20260506073039 76 133 0.0 7.0 0.00 0.00 0.00 81 1005.6
20260506072538 76 161 1.0 7.0 0.00 0.00 0.00 81 1005.7
20260506072038 76 161 2.0 8.0 0.00 0.00 0.00 81 1005.9
20260506071548 76 190 2.0 8.0 0.00 0.00 0.00 81 1005.7
20260506071038 76 157 2.0 10.0 0.00 0.00 0.00 81 1005.7
20260506070538 76 172 4.0 10.0 0.00 0.00 0.00 81 1005.7
20260506062034 76 252 2.0 8.0 0.00 0.00 0.00 82 1005.7
20260506061536 76 151 2.0 5.0 0.00 0.00 0.00 82 1005.8
20260506061034 76 165 1.0 7.0 0.00 0.00 0.00 82 1005.9
20260506060534 76 166 3.0 7.0 0.00 0.00 0.00 82 1005.9
20260506051028 76 138 1.0 6.0 0.00 0.00 0.00 81 1005.7
20260506050527 76 179 2.0 9.0 0.00 0.00 0.00 81 1005.7
20260506045026 76 117 3.0 7.0 0.00 0.00 0.00 81 1005.8
20260506044535 76 136 3.0 6.0 0.00 0.00 0.00 81 1005.8
20260506044024 77 108 1.0 4.0 0.00 0.00 0.00 81 1005.8
20260506043527 77 108 2.0 7.0 0.00 0.00 0.00 81 1005.8
20260506043027 77 113 2.0 7.0 0.00 0.00 0.00 81 1005.7
20260506042524 77 144 2.0 8.0 0.00 0.00 0.00 81 1005.8
20260506042023 77 46 1.0 9.0 0.00 0.00 0.00 81 1005.7
20260506041525 77 126 2.0 9.0 0.00 0.00 0.00 80 1005.6
20260506041023 77 182 1.0 5.0 0.00 0.00 0.00 80 1005.5
20260506040523 77 135 2.0 9.0 0.00 0.00 0.00 80 1005.4
20260506040023 77 152 3.0 9.0 0.00 0.00 0.00 80 1005.4
20260506035523 77 157 1.0 6.0 0.00 0.00 0.00 80 1005.3
20260506035023 77 151 1.0 7.0 0.00 0.00 0.00 79 1005.1
20260506034523 78 128 2.0 10.0 0.00 0.00 0.00 79 1005.1
20260506034022 78 132 3.0 11.0 0.00 0.00 0.00 79 1005.0
20260506033522 78 170 4.0 11.0 0.00 0.00 0.00 79 1005.0
20260506033022 78 145 2.0 10.0 0.00 0.00 0.00 78 1005.0
20260506032522 78 155 2.0 10.0 0.00 0.00 0.00 78 1004.9
20260506032022 78 153 3.0 8.0 0.00 0.00 0.00 78 1004.9
20260506031524 78 169 1.0 4.0 0.00 0.00 0.00 78 1005.1
20260506031022 78 38 1.0 8.0 0.00 0.00 0.00 78 1004.9
20260506030521 78 157 3.0 11.0 0.00 0.00 0.00 77 1004.8
20260506030022 79 123 3.0 8.0 0.00 0.00 0.00 77 1004.7
20260506025525 79 94 1.0 12.0 0.00 0.00 0.00 77 1004.7
20260506025021 79 165 4.0 12.0 0.00 0.00 0.00 76 1004.5
20260506024530 80 135 2.0 6.0 0.00 0.00 0.00 76 1004.4
20260506024020 80 135 2.0 5.0 0.00 0.00 0.00 76 1004.4
20260506023520 80 97 0.0 5.0 0.00 0.00 0.00 76 1004.5
20260506023020 80 157 2.0 5.0 0.00 0.00 0.00 75 1004.4
20260506022520 80 132 1.0 5.0 0.00 0.00 0.00 75 1004.4
20260506022020 80 143 1.0 5.0 0.00 0.00 0.00 75 1004.3
20260506021520 80 105 0.0 10.0 0.00 0.00 0.00 75 1004.3
20260506021020 81 113 2.0 10.0 0.00 0.00 0.00 75 1004.0
20260506020523 81 85 1.0 10.0 0.00 0.00 0.00 74 1003.9
20260506020019 81 117 3.0 10.0 0.00 0.00 0.00 74 1003.8
20260506015521 81 126 2.0 12.0 0.00 0.00 0.00 73 1003.7
20260506015019 82 95 3.0 12.0 0.00 0.00 0.00 73 1003.8
20260506014519 82 119 2.0 10.0 0.00 0.00 0.00 72 1003.7
20260506014018 82 70 1.0 10.0 0.00 0.00 0.00 72 1003.7
20260506013518 82 46 2.0 10.0 0.00 0.00 0.00 71 1003.6
20260506013022 83 92 2.0 8.0 0.00 0.00 0.00 71 1003.5
20260506012518 83 88 1.0 6.0 0.00 0.00 0.00 70 1003.4
20260506012017 83 167 2.0 6.0 0.00 0.00 0.00 70 1003.4
20260506011517 83 88 1.0 10.0 0.00 0.00 0.00 69 1003.3
20260506011018 83 71 3.0 10.0 0.00 0.00 0.00 69 1003.2
20260506010516 84 81 3.0 7.0 0.00 0.00 0.00 68 1003.1
20260506010017 84 102 2.0 5.0 0.00 0.00 0.00 68 1003.0
20260506005516 84 106 1.0 6.0 0.00 0.00 0.00 68 1002.9
20260506005020 84 92 1.0 6.0 0.00 0.00 0.00 68 1002.9
20260506004516 84 115 1.0 4.0 0.00 0.00 0.00 68 1002.9
20260506004015 84 74 1.0 9.0 0.00 0.00 0.00 68 1002.9
20260506003515 84 159 3.0 9.0 0.00 0.00 0.00 67 1002.9
20260506003015 85 117 1.0 5.0 0.00 0.00 0.00 67 1002.9
20260506002514 85 161 0.0 6.0 0.00 0.00 0.00 67 1002.9
20260506002014 85 100 1.0 6.0 0.00 0.00 0.00 67 1002.9
20260506001516 85 88 2.0 6.0 0.00 0.00 0.00 67 1002.8
20260506001014 85 92 2.0 9.0 0.00 0.00 0.00 67 1002.8
20260506000514 85 112 2.0 9.0 0.00 0.00 0.00 66 1002.7
20260506000013 86 78 1.0 7.0 0.00 0.00 0.00 66 1002.7
20260505235513 86 59 2.0 10.0 0.00 0.00 0.00 65 1002.6
20260505235015 87 70 1.0 9.0 0.00 0.00 0.00 65 1002.6
20260505234527 86 355 2.0 9.0 0.00 0.00 0.00 65 1002.5
20260505234011 87 74 3.0 7.0 0.00 0.00 0.00 64 1002.5
20260505233511 87 71 0.0 4.0 0.00 0.00 0.00 64 1002.5
20260505233016 87 104 0.0 4.0 0.00 0.00 0.00 64 1002.6
20260505232512 87 97 1.0 4.0 0.00 0.00 0.00 64 1002.5
20260505232012 87 94 1.0 7.0 0.00 0.00 0.00 63 1002.5
20260505231514 87 106 2.0 7.0 0.00 0.00 0.00 63 1002.5
20260505231011 88 69 1.0 6.0 0.00 0.00 0.00 63 1002.5
20260505230513 88 101 2.0 5.0 0.00 0.00 0.00 63 1002.5
20260505230014 88 167 1.0 6.0 0.00 0.00 0.00 63 1002.5
20260505225511 88 138 2.0 7.0 0.00 0.00 0.00 63 1002.4
20260505225010 88 73 3.0 8.0 0.00 0.00 0.00 63 1002.4
20260505224510 87 157 4.0 8.0 0.00 0.00 0.00 62 1002.4
20260505224010 87 143 3.0 10.0 0.00 0.00 0.00 62 1002.5
20260505223508 87 186 4.0 10.0 0.00 0.00 0.00 62 1002.5
20260505223011 87 168 2.0 7.0 0.00 0.00 0.00 62 1002.6
20260505222507 87 175 2.0 9.0 0.00 0.00 0.00 63 1002.5
20260505222007 87 123 4.0 9.0 0.00 0.00 0.00 62 1002.7
20260505221507 87 149 4.0 8.0 0.00 0.00 0.00 63 1002.7
20260505221006 87 250 2.0 5.0 0.00 0.00 0.00 62 1002.9
20260505220505 87 140 2.0 6.0 0.00 0.00 0.00 63 1002.8
20260505220009 87 117 1.0 10.0 0.00 0.00 0.00 64 1002.9
20260505215505 87 105 3.0 10.0 0.00 0.00 0.00 63 1002.8
20260505215006 86 142 3.0 9.0 0.00 0.00 0.00 64 1002.8
20260505214504 85 188 3.0 8.0 0.00 0.00 0.00 65 1003.0
20260505214002 86 181 4.0 11.0 0.00 0.00 0.00 64 1003.0
20260505213503 86 165 4.0 11.0 0.00 0.00 0.00 63 1003.2
20260505213001 87 138 2.0 10.0 0.00 0.00 0.00 62 1003.4
20260505212603 86 131 2.0 10.0 0.00 0.00 0.00 64 1003.5
20260505212100 86 188 3.0 7.0 0.00 0.00 0.00 64 1003.5
20260505211614 86 167 2.0 10.0 0.00 0.00 0.00 64 1003.6
20260505211058 86 159 4.0 10.0 0.00 0.00 0.00 63 1003.7
20260505210558 86 167 0.0 11.0 0.00 0.00 0.00 64 1003.7
20260505210058 85 173 5.0 12.0 0.00 0.00 0.00 64 1003.8
20260505205558 85 178 5.0 12.0 0.00 0.00 0.00 64 1003.8
20260505205058 87 160 2.0 9.0 0.00 0.00 0.00 63 1003.9
20260505204555 86 133 2.0 8.0 0.00 0.00 0.00 65 1003.9
20260505204056 85 250 4.0 8.0 0.00 0.00 0.00 64 1004.1
20260505203553 85 144 4.0 8.0 0.00 0.00 0.00 65 1004.3
20260505203054 86 123 3.0 8.0 0.00 0.00 0.00 64 1004.3
20260505202552 86 166 3.0 7.0 0.00 0.00 0.00 65 1004.4
20260505202055 84 185 0.0 8.0 0.00 0.00 0.00 67 1004.4
20260505201605 83 153 3.0 8.0 0.00 0.00 0.00 67 1004.6
20260505201052 84 147 2.0 9.0 0.00 0.00 0.00 67 1004.5
20260505200551 84 177 3.0 9.0 0.00 0.00 0.00 66 1004.6
20260505195552 84 182 1.0 5.0 0.00 0.00 0.00 67 1004.7
20260505195049 83 155 0.0 7.0 0.00 0.00 0.00 68 1004.7
20260505194600 83 126 1.0 7.0 0.00 0.00 0.00 68 1004.8
20260505194048 83 90 2.0 6.0 0.00 0.00 0.00 68 1004.9
20260505193548 83 138 2.0 7.0 0.00 0.00 0.00 67 1005.0
20260505193047 84 163 2.0 10.0 0.00 0.00 0.00 69 1005.0
20260505192545 83 171 3.0 10.0 0.00 0.00 0.00 69 1005.0
20260505192045 82 161 3.0 10.0 0.00 0.00 0.00 70 1005.2
20260505191545 82 171 2.0 6.0 0.00 0.00 0.00 69 1005.3
20260505191043 82 193 1.0 6.0 0.00 0.00 0.00 70 1005.4
20260505190543 81 163 4.0 14.0 0.00 0.00 0.00 70 1005.5
20260505190048 82 240 5.0 14.0 0.00 0.00 0.00 69 1005.6
20260505185542 81 244 3.0 8.0 0.00 0.00 0.00 70 1005.6
20260505185042 81 194 4.0 8.0 0.00 0.00 0.00 71 1005.6
20260505184542 81 213 3.0 8.0 0.00 0.00 0.00 70 1005.7
20260505184041 81 234 3.0 8.0 0.00 0.00 0.00 71 1005.7
20260505183540 81 150 4.0 9.0 0.00 0.00 0.00 71 1005.8
20260505183047 80 169 4.0 9.0 0.00 0.00 0.00 71 1005.9
20260505182540 80 203 3.0 10.0 0.00 0.00 0.00 71 1006.0
20260505182040 81 215 3.0 10.0 0.00 0.00 0.00 72 1005.9
20260505181541 80 153 4.0 10.0 0.00 0.00 0.00 72 1005.9
20260505181042 81 178 3.0 10.0 0.00 0.00 0.00 71 1005.9
20260505180538 80 154 3.0 10.0 0.00 0.00 0.00 72 1005.9
20260505180038 80 161 6.0 10.0 0.00 0.00 0.00 72 1006.0
20260505175536 79 213 4.0 9.0 0.00 0.00 0.00 73 1006.1
20260505175036 79 196 3.0 8.0 0.00 0.00 0.00 73 1006.1
20260505174536 79 171 4.0 10.0 0.00 0.00 0.00 74 1006.1
20260505174034 78 161 3.0 8.0 0.00 0.00 0.00 75 1006.1
20260505173536 78 173 4.0 9.0 0.00 0.00 0.00 75 1006.2
20260505173041 78 238 5.0 9.0 0.00 0.00 0.00 75 1006.3
20260505172532 78 213 4.0 10.0 0.00 0.00 0.00 75 1006.3
20260505172031 78 188 5.0 10.0 0.00 0.00 0.00 75 1006.3
20260505171534 78 208 5.0 10.0 0.00 0.00 0.00 76 1006.3
20260505171029 77 260 5.0 10.0 0.00 0.00 0.00 76 1006.2
20260505170528 77 267 2.0 14.0 0.00 0.00 0.00 77 1006.3
20260505170034 77 225 3.0 9.0 0.00 0.00 0.00 78 1006.2
20260505165526 76 215 3.0 9.0 0.00 0.00 0.00 78 1006.3
20260505165025 76 229 3.0 10.0 0.00 0.00 0.00 78 1006.3
20260505164524 76 130 5.0 10.0 0.00 0.00 0.00 79 1006.3
20260505164023 75 168 3.0 10.0 0.00 0.00 0.00 79 1006.3
20260505163521 75 200 3.0 10.0 0.00 0.00 0.00 80 1006.4
20260505163021 75 191 4.0 11.0 0.00 0.00 0.00 80 1006.4
20260505162520 75 185 5.0 10.0 0.00 0.00 0.00 80 1006.4
20260505162018 74 228 3.0 8.0 0.00 0.00 0.00 81 1006.4
20260505161525 74 140 2.0 10.0 0.00 0.00 0.00 81 1006.5
20260505161017 74 189 4.0 10.0 0.00 0.00 0.00 81 1006.4
20260505160517 74 190 4.0 10.0 0.00 0.00 0.00 81 1006.5
20260505153011 73 215 3.0 9.0 0.00 0.00 0.00 83 1006.4
20260505152511 73 183 3.0 9.0 0.00 0.00 0.00 83 1006.4
20260505152010 72 176 4.0 10.0 0.00 0.00 0.00 83 1006.4
20260505151510 72 207 4.0 10.0 0.00 0.00 0.00 83 1006.4
20260505151008 72 148 3.0 9.0 0.00 0.00 0.00 84 1006.3
20260505150507 72 186 3.0 9.0 0.00 0.00 0.00 84 1006.3
20260505140600 70 194 4.0 9.0 0.00 0.00 0.00 85 1006.4
20260505140119 70 175 4.0 9.0 0.00 0.00 0.00 85 1006.4